User: anonymous   Login
Location: Unspecified
(0.0000°N, 0.0000°E)
Time: 05:02:35
(UTC+01:00)
Language:

YAOGAN 1 - Orbit

View from above orbital plane
View from above orbital plane
View from above satellite
View from above satellite

Ground track
Ground track

The orbit data is extracted from the following two-line orbital elements,

1 29092U 06015A   14302.64578020  .00000850  00000-0  11394-3 0  2027
2 29092 097.9874 297.7669 0001563 102.6373 357.8822 14.81985180459908
Epoch (UTC): 29 October 2014 15:29:55
Eccentricity: 0.0001563
inclination: 97.9874°
perigee height: 622 km
apogee height: 624 km
right ascension of ascending node: 297.7669°
argument of perigee: 102.6373°
revolutions per day: 14.81985180
mean anomaly at epoch: 357.8822°
orbit number at epoch: 45990

The dashed part of the orbit path shows where the satellite is in the earth's shadow,  

DLR